This demonstration page uses our WeatherBlox Daily Observations layout. Learn more.

Left ArrowRight Arrow

44.8408, -93.29828

Hourly Observations for May 18, 2016

Temp ( °F °C ) Dew Point ( °F °C ) Humidity (%) Winds ( mph kmh ) Pressure ( in mb ) Visibility ( mi km ) Precip ( " mm )
12:53 am 00:53 Clear 50 10 35 1.7 57 57 Calm 30.29 1026 10 16 0.00 0.00
1:53 am 01:53 Clear 48 8.9 38 3.3 68 68 Calm 30.29 1026 10 16 0.00 0.00
2:53 am 02:53 Clear 46 7.8 40 4.4 79 79 Calm 30.28 1026 10 16 0.00 0.00
3:53 am 03:53 Clear 45 7.2 39 3.9 80 80 Calm 30.28 1026 10 16 0.00 0.00
4:53 am 04:53 Clear 44 6.7 39 3.9 83 83 Calm 30.29 1026 10 16 0.00 0.00
5:53 am 05:53 Sunny with Patchy Fog 44 6.7 40 4.4 85 85 Calm 30.29 1026 10 16 0.00 0.00
6:53 am 06:53 Sunny 47 8.3 40 4.4 77 77 Calm 30.30 1026 10 16 0.00 0.00
7:53 am 07:53 Sunny 52 11.1 41 5 66 66 Calm 30.30 1026 10 16 0.00 0.00
8:53 am 08:53 Sunny 57 13.9 36 2.2 45 45 E 3 6 30.30 1026 10 16 0.00 0.00
9:53 am 09:53 Sunny 61 16.1 33 0.6 35 35 E 6 9 30.29 1026 10 16 0.00 0.00
10:53 am 10:53 Sunny 64 17.8 29 -1.7 27 27 Calm 30.28 1026 10 16 0.00 0.00
11:53 am 11:53 Mostly Sunny 64 17.8 28 -2.2 26 26 Calm 30.28 1025 10 16 0.00 0.00
12:53 pm 12:53 Mostly Sunny 65 18.3 31 -0.6 28 28 SSE 8 13 30.26 1025 10 16 0.00 0.00
1:53 pm 13:53 Mostly Sunny 67 19.4 29 -1.7 24 24 Calm 30.24 1024 10 16 0.00 0.00
2:53 pm 14:53 Mostly Sunny 67 19.4 29 -1.7 24 24 Calm 30.22 1024 10 16 0.00 0.00
3:53 pm 15:53 Mostly Sunny 68 20 30 -1.1 24 24 Calm 30.20 1023 10 16 0.00 0.00
4:53 pm 16:53 Mostly Sunny 68 20 30 -1.1 24 24 SE 6 9 30.18 1022 10 16 0.00 0.00
5:53 pm 17:53 Mostly Sunny 68 20 29 -1.7 23 23 W 5 7 30.17 1022 10 16 0.00 0.00
6:53 pm 18:53 Sunny 67 19.4 28 -2.2 23 23 SSE 5 7 30.16 1021 10 16 0.00 0.00
7:53 pm 19:53 Mostly Sunny 66 18.9 28 -2.2 24 24 Calm 30.14 1021 10 16 0.00 0.00
8:53 pm 20:53 Partly Cloudy 61 16.1 31 -0.6 32 32 SE 7 11 30.14 1021 10 16 0.00 0.00
9:53 pm 21:53 Mostly Cloudy 60 15.6 31 -0.6 33 33 SSE 6 9 30.14 1021 10 16 0.00 0.00
10:53 pm 22:53 Mostly Cloudy 59 15 31 -0.6 35 35 Calm 30.15 1021 10 16 0.00 0.00
11:53 pm 23:53 Clear 55 12.8 33 0.6 44 44 SSE 7 11 30.15 1021 10 16 0.00 0.00

Powered by AerisWeather